Home   Weather   French Lick   Past weeks

Flag for USA Past Weather in French Lick, Indiana, USA — Yesterday and Last 2 Weeks

Now
57 °F

More clouds than sun.


Feels Like: 54 °F
Forecast: 51 / 60 °F
Wind: 16 mph from West

Location: Huntingburg Airport

Current Time: Apr 27, 2017 at 5:04:53 pm

Latest Report: Apr 27, 2017 at 4:07 pm


Visibility: 10 mi

Pressure: 29.80 "Hg

Humidity: 72%

Dew Point: 48 °F

Location of French LickLocation

Past Weather in French Lick — Graph

°F

French Lick Temperature Yesterday

Maximum temperature yesterday: 82 °F (at 2:56 pm)
Minimum temperature yesterday: 61 °F (at 2:56 am)
Average temperature yesterday: 71 °F

High & Low Weather Summary for the Past Weeks

 TemperatureHumidityPressure
High82 °F (Apr 14, 4:56 pm)100% (Apr 16, 9:56 pm)30.34 "Hg (Apr 16, 9:56 pm)
Low45 °F (Apr 22, 6:31 am)28% (Apr 23, 6:56 pm)29.49 "Hg (Apr 26, 8:56 pm)
Average64 °F69%30.00 "Hg
* Reported Apr 12 2:56 pm — Apr 27 2:56 pm, French Lick, Weather by CustomWeather, © 2017

Note: Actual official high and low records may vary slightly from our data, if they occured in-between our weather recording intervals... More about our weather records

Advertising

French Lick Weather History for the Previous 24 Hours

Scroll right to see more
 ConditionsComfort  
Time TempWeatherWind HumidityBarometerVisibility
2:56 pm
Thu, Apr 27
58 °FMostly cloudy.14 mph70%29.79 "Hg10 mi
1:56 pm56 °FOvercast.15 mph75%29.77 "Hg10 mi
12:56 pm54 °FOvercast.12 mph83%29.75 "Hg10 mi
11:56 am53 °FOvercast.14 mph83%29.73 "Hg10 mi
10:56 am53 °FOvercast.13 mph80%29.71 "Hg10 mi
9:56 am53 °FOvercast.15 mph86%29.67 "Hg10 mi
8:56 am53 °FOvercast.18 mph89%29.65 "Hg10 mi
8:13 am54 °FOvercast.15 mph94%29.61 "Hg10 mi
7:56 am54 °FMostly cloudy.14 mph93%29.59 "Hg10 mi
7:32 am59 °FLight rain. Cloudy.22 mph88%29.59 "Hg9 mi
7:16 am61 °FMostly cloudy.10 mph88%29.57 "Hg9 mi
6:56 am61 °FLight rain. Mostly cloudy.14 mph90%29.54 "Hg9 mi
5:56 am62 °FMostly cloudy.14 mph86%29.53 "Hg10 mi
4:56 am60 °FMostly cloudy.12 mph90%29.52 "Hg10 mi
3:56 am59 °FOvercast.10 mph93%29.52 "Hg10 mi
3:11 am61 °FLight rain. Mostly cloudy.9 mph88%29.54 "Hg10 mi
2:56 am60 °FThunderstorms. Mostly cloudy.6 mph96%29.58 "Hg9 mi
1:56 am60 °FLight rain. Mostly cloudy.5 mph93%29.58 "Hg10 mi
12:56 am63 °FLight rain. Overcast.8 mph84%29.56 "Hg10 mi
11:56 pm
Wed, Apr 26
64 °FMostly cloudy.No wind81%29.55 "Hg10 mi
11:19 pm64 °FMostly cloudy.17 mph78%29.56 "Hg10 mi
10:56 pm74 °FOvercast.13 mph53%29.53 "Hg10 mi
9:56 pm74 °FClear.13 mph52%29.49 "Hg10 mi
8:56 pm75 °FClear.10 mph55%29.49 "Hg10 mi
7:56 pm77 °FSunny.8 mph52%29.50 "Hg10 mi
6:56 pm80 °FSunny.12 mph47%29.52 "Hg10 mi
5:56 pm81 °FPassing clouds.21 mph49%29.52 "Hg10 mi
Weather by CustomWeather, © 2017

See weather overviewHow to use our weather pages